TimeEDT,TemperatureF,Dew PointF,Humidity,Sea Level PressureIn,VisibilityMPH,Wind Direction,Wind SpeedMPH,Gust SpeedMPH,PrecipitationIn,Events,Conditions,WindDirDegrees,DateUTC
12:58 AM,80.1,67.1,64,30.04,10.0,East,6.9,-,N/A,,Clear,80,2013-08-28 04:58:00
1:58 AM,79.9,67.8,66,30.04,10.0,ESE,8.1,-,N/A,,Clear,110,2013-08-28 05:58:00
2:58 AM,79.7,66.4,64,30.03,10.0,East,6.9,-,N/A,,Clear,80,2013-08-28 06:58:00
3:58 AM,79.5,66.4,64,30.01,10.0,ENE,5.8,-,N/A,,Clear,70,2013-08-28 07:58:00
4:58 AM,79.3,67.5,67,30.01,10.0,ENE,5.8,-,N/A,,Clear,60,2013-08-28 08:58:00
5:58 AM,79.2,67.6,68,30.01,10.0,ENE,6.9,-,N/A,,Clear,70,2013-08-28 09:58:00
6:58 AM,79.0,67.6,68,30.03,10.0,East,6.9,-,N/A,,Clear,80,2013-08-28 10:58:00
7:58 AM,80.8,68.4,66,30.04,10.0,East,6.9,-,N/A,,Clear,80,2013-08-28 11:58:00
8:13 AM,82.4,68.0,62,30.02,10.0,ENE,6.9,-,N/A,,Light Drizzle,70,2013-08-28 12:13:00
8:23 AM,82.4,68.0,62,30.03,10.0,East,6.9,-,N/A,,Clear,80,2013-08-28 12:23:00
8:58 AM,82.8,68.5,62,30.06,10.0,East,6.9,-,0.00,,Clear,100,2013-08-28 12:58:00
8:59 AM,82.4,68.0,62,30.04,10.0,East,5.8,-,N/A,,Light Drizzle,100,2013-08-28 12:59:00
9:05 AM,82.4,68.0,62,30.04,10.0,East,5.8,-,N/A,,Clear,90,2013-08-28 13:05:00
9:55 AM,84.2,68.0,58,30.05,10.0,East,6.9,-,N/A,,Clear,80,2013-08-28 13:55:00
10:55 AM,86.0,68.0,55,30.07,10.0,NE,8.1,-,N/A,,Clear,50,2013-08-28 14:55:00
11:58 AM,86.0,68.0,55,30.09,10.0,ENE,9.2,-,N/A,,Clear,60,2013-08-28 15:58:00
12:58 PM,86.4,67.5,53,30.08,10.0,ENE,8.1,-,N/A,,Clear,70,2013-08-28 16:58:00
1:58 PM,86.5,67.3,52,30.06,10.0,ENE,9.2,-,N/A,,Clear,60,2013-08-28 17:58:00
2:58 PM,86.7,68.2,54,30.06,10.0,East,10.4,-,N/A,,Clear,90,2013-08-28 18:58:00
3:58 PM,86.4,68.0,54,30.04,10.0,ENE,8.1,-,N/A,,Clear,70,2013-08-28 19:58:00
4:58 PM,85.6,67.6,55,30.03,10.0,East,9.2,-,N/A,,Clear,80,2013-08-28 20:58:00
5:58 PM,84.7,67.5,56,30.01,10.0,ENE,8.1,-,N/A,,Clear,70,2013-08-28 21:58:00
6:58 PM,83.5,67.6,59,30.03,10.0,ENE,9.2,-,N/A,,Clear,70,2013-08-28 22:58:00
7:58 PM,81.9,67.8,62,30.03,10.0,East,8.1,-,N/A,,Clear,90,2013-08-28 23:58:00
8:58 PM,81.5,68.2,64,30.04,10.0,East,8.1,-,N/A,,Clear,90,2013-08-29 00:58:00
9:58 PM,81.3,68.7,65,30.04,10.0,East,8.1,-,N/A,,Clear,100,2013-08-29 01:58:00
10:58 PM,81.1,69.3,67,30.05,10.0,East,10.4,-,N/A,,Clear,100,2013-08-29 02:58:00
11:58 PM,81.5,69.8,67,30.06,10.0,East,8.1,-,N/A,,Mostly Cloudy,100,2013-08-29 03:58:00